SCP
1 0 0 1 1 1 1 1 1 0 0 0 0 0 0 0 0 1 1 1 1 1 1 1 1 1 1 1 1 1 1 1 1 1 1 1 1 1 1 1 1 1 1
1 0 0 1 1 1 1 1 1 0 0 0 0 0 0 0 1 1 1 1 1 1 1 1 1 1 1 1 1 1 1 1 1 1 1 1 1 1 1 1 1 1 1
0 0 0 0 1 1 1 1 1 0 0 0 0 1 1 1 1 1 1 1 1 1 1 1 1 1 1 1 1 1 1 1 1 0 0 0 1 1 1 1 1 1 1
0 0 0 0 0 1 1 1 1 0 0 0 1 1 1 1 1 1 1 1 1 1 1 1 1 1 1 1 1 0 0 0 0 0 0 0 0 1 1 1 1 1 1
1 1 1 1 1 0 0 0 0 0 0 1 1 1 1 1 1 1 1 1 1 1 1 1 1 1 1 1 1 0 0 0 0 0 0 0 0 1 1 1 1 1 1
1 1 1 1 0 0 0 0 0 0 0 1 1 1 1 1 1 1 1 1 1 1 1 1 1 1 1 1 1 1 1 1 1 1 1 1 1 1 1 1 1 1 1
1 1 1 0 0 0 0 0 0 0 0 0 0 1 1 1 1 1 1 1 1 1 1 0 0 1 1 1 1 1 1 1 1 1 1 1 1 1 1 1 1 1 1
1 1 0 0 0 0 0 0 0 0 0 0 0 0 0 0 0 0 1 1 1 1 0 0 0 1 1 1 1 1 1 1 1 1 1 1 1 1 1 1 1 1 1
1 1 0 0 0 0 0 0 1 1 0 0 0 0 0 0 0 0 0 0 1 0 0 0 0 0 1 1 1 1 1 1 1 1 1 1 1 1 1 1 1 1 1
1 1 1 0 0 0 0 0 1 1 0 0 0 0 0 0 0 0 0 1 1 0 0 0 0 0 0 1 1 1 1 1 1 1 1 1 1 1 1 1 1 1 1
1 1 1 1 1 1 0 0 0 0 0 0 0 0 0 0 0 0 0 1 1 1 0 0 0 0 0 0 1 1 1 0 1 0 0 1 1 1 1 1 1 1 1
0 1 1 1 1 1 0 0 0 0 0 0 0 0 0 0 0 0 0 1 1 1 1 0 0 0 0 0 0 1 0 0 0 0 1 1 1 1 1 2 2 1 1
0 1 1 1 1 0 0 0 0 0 0 0 0 0 0 0 0 0 0 0 1 1 1 0 0 0 0 0 0 0 0 0 0 0 1 1 1 1 1 2 2 1 1
0 0 1 0 0 0 0 0 0 0 0 0 0 0 0 0 0 0 0 0 0 0 0 0 0 0 0 0 0 0 0 0 0 0 1 1 1 1 2 2 1 1 1
0 0 0 0 1 0 0 0 0 0 0 0 0 0 0 0 0 0 0 0 0 0 0 0 0 0 0 0 0 0 0 0 0 0 1 1 1 1 2 1 1 1 1
0 0 0 1 1 1 0 1 1 1 1 0 0 0 0 0 0 0 0 0 0 0 0 0 0 0 0 1 1 1 1 1 0 0 0 1 1 1 1 1 1 1 1
0 0 1 1 1 1 1 1 1 1 1 1 0 0 0 0 0 0 0 0 0 0 0 0 0 0 0 1 1 1 1 1 1 1 0 0 1 1 1 1 1 1 1
0 0 1 1 1 1 1 1 1 1 1 1 1 1 0 0 0 0 0 0 0 0 0 0 0 0 0 0 0 0 0 0 0 0 0 0 1 1 1 1 1 1 1
1 1 1 1 1 1 1 1 1 1 1 1 1 1 1 0 0 0 0 0 0 0 0 0 0 0 0 0 0 0 0 0 0 0 0 0 1 1 1 1 1 1 1
1 1 1 1 2 2 1 1 1 1 1 1 1 1 1 1 1 0 0 0 0 0 0 0 0 0 0 0 0 0 0 0 0 0 0 0 0 1 1 1 1 1 1
1 1 1 1 2 2 2 2 1 1 1 1 1 1 1 1 1 1 0 0 0 0 0 0 0 0 1 0 0 0 0 0 0 0 0 0 0 1 1 1 1 1 1
1 1 1 1 2 3 3 2 2 2 2 1 1 1 1 1 1 1 0 0 0 0 0 0 0 1 1 1 1 0 0 0 0 0 0 0 0 0 1 1 1 1 0
1 1 1 1 1 2 3 3 3 2 2 2 1 1 1 2 1 1 0 0 0 0 0 1 1 1 1 1 1 0 0 0 0 0 0 0 0 0 0 0 0 0 0
1 1 1 1 1 2 3 4 4 3 2 2 1 1 2 2 2 1 0 0 0 0 0 0 1 1 1 1 1 0 0 0 0 0 0 0 0 0 0 0 0 0 0
1 1 1 1 1 2 3 4 4 3 3 2 2 2 2 2 2 1 1 0 0 0 0 1 1 1 1 1 1 0 0 0 0 0 0 0 0 0 0 0 0 0 0
1 1 1 1 1 2 2 3 3 4 3 2 2 2 2 2 2 1 1 1 0 0 0 1 1 1 1 1 0 0 0 0 0 0 0 0 0 0 0 0 0 0 0
Wind_Speed
6 8 11 12 12 11 11 11 11 11 11 11 11 10 10 10 10 10 10 10 10 10 10 10 10 10 9 9 8 8 8 7 7 7 7 7 7 7 7 6 5 4 8
8 10 11 12 12 12 12 12 12 11 11 11 11 11 10 10 10 10 10 10 10 10 10 10 10 10 9 9 8 8 8 7 6 7 7 6 7 7 7 7 6 5 8
9 10 10 11 12 12 12 12 12 11 11 11 11 11 11 11 10 10 10 10 10 10 10 11 11 10 10 9 9 8 8 7 6 6 6 3 4 7 7 7 7 7 8
10 10 10 10 11 11 12 12 12 12 12 12 12 12 11 11 11 11 12 11 11 11 11 11 10 10 10 9 9 8 7 7 6 5 3 4 4 7 7 7 7 7 7
11 11 10 10 11 11 12 12 12 12 12 12 12 12 12 12 12 13 13 13 12 12 12 11 11 10 10 10 9 8 7 6 6 5 4 4 4 8 8 7 7 7 7
10 11 9 10 11 11 11 11 12 12 13 13 12 12 12 12 12 12 12 12 12 12 12 11 11 11 10 9 9 8 7 7 5 3 4 5 4 8 8 8 8 8 7
9 10 10 10 11 11 11 11 11 12 12 12 12 12 12 12 12 12 12 13 12 12 12 11 11 11 10 9 8 7 7 7 4 4 5 5 6 9 9 9 8 8 8
8 9 9 10 10 11 11 11 11 11 11 11 11 11 11 11 12 12 12 12 12 12 11 11 11 10 10 9 8 8 8 7 7 6 6 5 9 11 11 10 9 9 8
6 7 7 7 8 10 10 10 9 9 9 8 8 8 9 9 10 10 11 11 11 11 10 10 10 10 9 8 7 8 8 8 4 4 7 5 10 12 12 11 11 11 10
5 5 6 6 6 7 7 8 8 7 6 6 6 5 6 7 8 9 10 10 10 9 9 8 8 8 7 5 5 6 7 6 5 6 4 6 11 12 12 11 12 12 12
4 4 5 5 5 5 6 6 6 6 4 3 3 3 3 3 3 5 8 8 7 7 7 6 6 5 4 3 3 3 4 3 6 5 5 10 12 11 11 12 12 12 12
4 4 4 4 5 5 4 4 2 3 2 1 2 2 1 2 3 5 5 6 5 5 4 4 3 1 1 0 1 2 2 4 5 4 5 11 11 11 11 12 12 12 11
4 4 5 4 4 5 3 2 1 2 1 2 3 3 3 2 2 3 1 2 2 2 1 1 1 1 1 1 2 2 4 4 4 4 5 10 11 11 11 11 12 11 11
4 5 4 4 4 5 4 2 2 2 1 2 2 3 2 1 2 2 1 1 1 1 1 1 1 1 2 2 3 4 5 4 4 3 4 9 10 10 11 11 11 10 10
5 4 4 4 4 5 3 2 3 2 2 2 2 2 3 2 2 2 2 2 2 1 1 1 2 4 3 4 4 5 5 5 5 4 4 8 9 10 10 9 9 9 9
4 4 3 3 3 4 3 3 3 2 2 2 2 3 4 3 3 3 3 3 2 2 1 2 3 3 3 3 5 4 4 4 5 5 4 5 8 8 8 8 8 8 8
4 5 3 2 3 4 4 3 3 3 3 2 2 3 4 3 3 3 3 3 2 2 3 3 3 3 3 4 4 4 4 5 4 4 4 3 3 6 7 7 7 7 7
4 5 4 3 3 4 4 3 3 3 3 3 3 3 4 4 4 3 3 2 2 3 2 2 2 2 3 2 2 2 3 3 4 3 2 3 3 3 4 6 6 7 7
3 4 5 3 3 4 3 3 3 3 3 2 3 3 4 4 4 3 2 2 3 3 3 3 3 2 2 2 1 2 2 3 2 2 3 3 3 4 3 4 5 6 6
3 3 5 4 4 3 2 3 2 3 2 2 2 3 4 3 4 3 2 3 3 3 3 2 2 2 2 1 2 3 2 2 1 2 2 3 3 4 3 4 3 3 5
3 4 5 4 3 3 2 2 2 2 2 2 2 3 3 4 4 3 3 3 3 2 2 3 2 2 1 1 2 2 1 1 2 2 2 2 2 3 3 3 2 2 2
3 3 3 3 3 3 2 1 2 2 2 2 2 3 3 3 4 3 3 2 2 2 2 3 3 2 1 1 1 1 1 2 2 1 1 1 2 2 2 3 3 3 3
3 2 2 3 3 3 3 2 2 2 2 2 2 2 3 3 4 3 3 2 2 2 1 1 2 1 1 1 1 1 1 1 1 1 0 1 1 1 1 1 3 3 3
3 2 2 2 3 3 3 3 3 2 2 1 1 1 2 3 3 3 3 3 2 2 2 1 2 1 1 1 1 1 1 1 1 0 1 0 1 1 1 1 2 2 3
3 2 2 2 3 3 2 2 2 2 1 1 1 2 2 2 3 3 3 3 3 2 2 2 2 2 1 0 0 1 1 1 1 1 0 1 1 0 1 1 2 2 2
3 2 2 3 2 2 2 1 2 2 1 1 1 1 1 1 1 2 3 2 3 2 2 2 1 2 2 2 1 1 1 0 0 1 1 1 0 1 0 1 1 1 2
Wind_Direction
78 76 58 56 56 56 56 54 54 56 57 59 59 57 55 56 61 63 63 65 70 71 71 72 72 72 69 67 65 66 68 68 73 76 77 78 77 76 73 72 71 78 88
88 83 66 59 59 58 56 56 55 58 59 59 58 58 57 57 60 64 63 65 71 74 72 72 73 73 71 67 64 63 64 66 70 76 74 72 76 79 77 74 73 80 85
87 87 74 60 58 57 57 57 58 60 60 59 59 59 60 59 60 64 64 68 74 79 75 74 72 71 71 68 65 65 65 64 66 65 59 57 73 77 80 78 77 81 82
85 81 73 65 62 61 59 57 58 60 61 60 58 58 60 61 63 63 65 71 76 78 77 74 72 71 71 69 69 70 66 62 62 54 58 62 68 75 80 80 81 86 85
87 86 78 69 67 66 63 61 61 63 63 61 58 58 63 66 66 66 67 71 73 74 73 71 69 68 68 68 69 70 66 64 57 53 62 59 60 74 81 79 84 93 90
91 93 87 79 76 74 71 70 69 68 66 62 60 61 67 68 68 68 69 69 71 72 71 71 68 67 68 67 65 60 56 57 47 61 65 61 64 75 79 77 82 88 89
88 97 96 89 86 82 76 73 72 71 70 68 66 65 66 68 69 70 71 72 73 72 70 70 68 66 67 65 60 53 46 47 56 66 69 65 67 72 75 74 78 84 83
91 102 106 100 94 91 83 77 76 75 73 73 71 70 69 69 69 71 71 73 73 72 71 70 70 67 68 65 59 50 45 48 68 68 70 68 72 72 73 73 76 78 80
93 106 119 123 112 101 93 87 84 82 82 82 81 78 77 76 75 75 75 76 75 73 72 72 73 72 70 64 57 50 44 43 62 68 72 70 72 72 72 71 73 72 74
84 92 102 116 119 116 110 103 100 94 91 91 95 92 91 89 86 84 83 81 81 79 79 79 81 79 74 64 52 40 33 38 64 63 66 73 73 73 71 70 73 73 71
68 80 91 101 105 108 112 114 121 118 111 101 114 124 121 116 105 88 89 93 91 90 90 90 94 92 84 67 54 35 36 69 69 66 67 74 74 74 73 75 75 74 72
63 71 81 87 92 88 87 108 115 99 95 88 81 76 86 76 82 92 106 110 111 107 106 111 119 129 126 81 45 29 66 82 78 76 76 77 76 78 79 79 78 75 73
72 56 62 79 93 92 79 85 81 84 67 32 62 65 52 68 100 108 124 126 130 135 136 121 178 224 121 84 78 71 61 70 77 75 76 80 80 82 84 83 81 78 75
86 67 56 65 80 85 78 74 68 62 58 36 27 70 58 38 58 82 96 108 121 101 60 30 315 50 54 75 81 79 71 74 85 84 84 85 86 86 85 83 81 80 76
89 80 48 49 71 84 82 67 77 57 40 48 15 29 59 41 39 48 68 59 70 74 71 35 32 40 35 46 57 66 75 78 91 93 92 92 92 88 86 84 83 82 79
93 92 70 49 74 88 88 71 64 63 54 38 10 22 46 42 41 38 50 44 41 43 40 59 60 54 46 47 53 53 60 73 86 92 96 92 92 88 83 83 83 80 80
97 100 92 66 65 75 74 68 70 65 56 44 17 16 36 40 47 37 41 38 29 33 45 46 56 53 55 54 51 54 54 57 72 86 100 102 98 89 85 82 82 78 79
102 103 100 74 66 74 72 62 62 64 53 41 26 13 22 29 46 43 36 35 31 31 40 51 62 60 55 58 54 57 66 60 60 75 91 107 108 98 89 86 82 78 77
90 103 106 91 69 68 69 75 61 63 62 43 36 19 10 18 40 44 28 31 37 33 33 42 48 59 59 53 69 77 75 74 53 60 69 78 96 100 100 96 86 81 79
71 86 92 89 73 71 57 61 59 59 54 49 42 23 13 16 37 44 31 31 37 36 38 44 50 48 59 46 63 72 76 89 70 58 60 66 80 98 102 102 95 77 76
75 75 79 89 88 78 56 60 59 50 52 47 40 34 16 13 24 46 37 28 30 33 35 44 48 56 40 43 70 54 38 68 84 83 69 63 70 81 94 104 109 95 77
83 68 90 87 91 89 70 71 86 65 53 56 27 21 13 19 20 37 40 37 30 31 29 39 41 34 10 36 76 90 47 8 5 67 81 88 74 65 79 99 98 95 95
96 81 69 89 95 100 90 64 63 58 47 43 27 17 5 21 24 23 25 36 34 37 31 35 48 42 5 353 51 101 118 181 298 328 65 97 93 64 50 71 99 101 100
89 85 73 72 81 89 104 91 91 82 63 33 35 22 5 18 21 20 24 23 33 31 29 18 40 23 44 333 333 360 109 132 141 269 319 19 108 107 93 65 85 103 98
61 58 62 68 70 76 86 106 102 91 82 54 52 49 28 12 11 16 23 26 19 19 23 37 23 11 26 4 338 339 1 17 49 130 219 325 357 337 96 95 95 102 115
66 47 47 57 61 72 89 113 127 121 119 91 59 70 46 22 1 10 20 27 18 11 10 27 29 16 14 3 359 10 21 43 354 102 166 179 202 279 25 73 103 112 114